Regional Weather Roundup
Issued by NWS Charleston, WV

Home | Current Version | Previous Version | Graphics & Text | Print | Product List | Glossary On
Versions: 1 2 3 4 5 6 7 8 9 10 11 12 13 14 15 16 17 18 19 20 21 22 23 24 25 26 27 28 29 30 31 32 33 34 35 36 37 38 39 40 41 42 43 44 45 46 47 48 49 50
225
ASUS41 KRLX 192210
RWRRLX
West Virginia Regional Weather Roundup
National Weather Service Charleston WV
600 PM EDT SAT AUG 19 2017

Note: "fair" indicates few or no clouds below 12,000 feet with no
significant weather and/or obstructions to visibility.

WVZ003-192300-
Northern Panhandle of West Virginia

CITY           SKY/WX    TMP DP  RH WIND       PRES   REMARKS
WHEELING       PTSUNNY   67  62  84 W5        29.94F
$$

WVZ009-192300-
Northwest West Virginia

CITY           SKY/WX    TMP DP  RH WIND       PRES   REMARKS
PARKERSBURG    MOSUNNY   83  65  54 W9        29.96R
$$

WVZ006-192300-
Western West Virginia

CITY           SKY/WX    TMP DP  RH WIND       PRES   REMARKS
HUNTINGTON     SUNNY     85  66  53 SW6       29.94F
$$

WVZ015-192300-
West Central West Virginia

CITY           SKY/WX    TMP DP  RH WIND       PRES   REMARKS
CHARLESTON     MOSUNNY   85  63  47 W8        29.95S
$$

WVZ022-031-192300-
North Central West Virginia

CITY           SKY/WX    TMP DP  RH WIND       PRES   REMARKS
CLARKSBURG     MOSUNNY   84  60  44 W12G20    29.95S
MORGANTOWN     SUNNY     83  61  47 SW7       29.95R
$$

WVZ025-035-042-045-192300-
Southern West Virginia

CITY           SKY/WX    TMP DP  RH WIND       PRES   REMARKS
BECKLEY        SUNNY     80  59  48 W9        30.04S
LOGAN            N/A     82  66  57 CALM      30.00S
BLUEFIELD      SUNNY     78  59  51 W6        30.07S
LEWISBURG      MOSUNNY   81  60  49 W8        30.03S
$$

WVZ047-192300-
Northern Mountains of West Virginia

CITY           SKY/WX    TMP DP  RH WIND       PRES   REMARKS
ELKINS         SUNNY     81  59  47 W9        30.00R
$$

WVZ052-192300-
Eastern Panhandle of West Virginia

CITY           SKY/WX    TMP DP  RH WIND       PRES   REMARKS
MARTINSBURG    SUNNY     86  62  44 SW6       29.88S
PETERSBURG     SUNNY     87  64  46 W7        29.93R
$$




USA.gov is the U.S. government's official web portal to all federal, state and local government web resources and services.